����������;��������(kWh)
2015-12-28 00:00;67,75
2015-12-28 00:15;68,9
2015-12-28 00:30;67,35
2015-12-28 00:45;63,8
2015-12-28 01:00;61,35
2015-12-28 01:15;61,35
2015-12-28 01:30;60,9
2015-12-28 01:45;60,8
2015-12-28 02:00;60,45
2015-12-28 02:15;61,05
2015-12-28 02:30;60,15
2015-12-28 02:45;60,6
2015-12-28 03:00;60,4
2015-12-28 03:15;62,6
2015-12-28 03:30;60,7
2015-12-28 03:45;59,4
2015-12-28 04:00;63,6
2015-12-28 04:15;62,6
2015-12-28 04:30;62,5
2015-12-28 04:45;64,7
2015-12-28 05:00;65,1
2015-12-28 05:15;62,05
2015-12-28 05:30;65,4
2015-12-28 05:45;59,7
2015-12-28 06:00;60,05
2015-12-28 06:15;62,15
2015-12-28 06:30;63
2015-12-28 06:45;59,5
2015-12-28 07:00;57,7
2015-12-28 07:15;59,2
2015-12-28 07:30;59,05
2015-12-28 07:45;60,9
2015-12-28 08:00;72,4
2015-12-28 08:15;132,8
2015-12-28 08:30;124,1
2015-12-28 08:45;98,4
2015-12-28 09:00;93
2015-12-28 09:15;113,5
2015-12-28 09:30;108
2015-12-28 09:45;123,35
2015-12-28 10:00;121,9
2015-12-28 10:15;136,7
2015-12-28 10:30;139,8
2015-12-28 10:45;161,75
2015-12-28 11:00;174
2015-12-28 11:15;147,7
2015-12-28 11:30;142,05
2015-12-28 11:45;131,45
2015-12-28 12:00;137,55
2015-12-28 12:15;134,95
2015-12-28 12:30;128,85
2015-12-28 12:45;138,45
2015-12-28 13:00;133,4
2015-12-28 13:15;137,6
2015-12-28 13:30;130,45
2015-12-28 13:45;136,5
2015-12-28 14:00;126
2015-12-28 14:15;137,35
2015-12-28 14:30;121,7
2015-12-28 14:45;121,7
2015-12-28 15:00;116,15
2015-12-28 15:15;103,3
2015-12-28 15:30;107,25
2015-12-28 15:45;100,35
2015-12-28 16:00;97,85
2015-12-28 16:15;89,4
2015-12-28 16:30;85,05
2015-12-28 16:45;85,45
2015-12-28 17:00;88,05
2015-12-28 17:15;84,35
2015-12-28 17:30;85,1
2015-12-28 17:45;92,4
2015-12-28 18:00;90,7
2015-12-28 18:15;90,6
2015-12-28 18:30;97,55
2015-12-28 18:45;94,95
2015-12-28 19:00;94,65
2015-12-28 19:15;88,8
2015-12-28 19:30;81,8
2015-12-28 19:45;78,6
2015-12-28 20:00;81,45
2015-12-28 20:15;76,8
2015-12-28 20:30;75,2
2015-12-28 20:45;77,15
2015-12-28 21:00;74
2015-12-28 21:15;67,05
2015-12-28 21:30;72,1
2015-12-28 21:45;68,2
2015-12-28 22:00;67,25
2015-12-28 22:15;68,4
2015-12-28 22:30;65,9
2015-12-28 22:45;64,95
2015-12-28 23:00;69,15
2015-12-28 23:15;64,15
2015-12-28 23:30;63,45
2015-12-28 23:45;66,35
2015-12-29 00:00;66,9
2015-12-29 00:15;67,15
2015-12-29 00:30;71,1
2015-12-29 00:45;67,6
2015-12-29 01:00;66,75
2015-12-29 01:15;70,95
2015-12-29 01:30;67
2015-12-29 01:45;70,65
2015-12-29 02:00;71
2015-12-29 02:15;68,05
2015-12-29 02:30;70,85
2015-12-29 02:45;68,9
2015-12-29 03:00;68,65
2015-12-29 03:15;70,6
2015-12-29 03:30;63,65
2015-12-29 03:45;63,9
2015-12-29 04:00;65,2
2015-12-29 04:15;64,55
2015-12-29 04:30;64,8
2015-12-29 04:45;68,65
2015-12-29 05:00;67,85
2015-12-29 05:15;61,75
2015-12-29 05:30;65,65
2015-12-29 05:45;59,75
2015-12-29 06:00;61,1
2015-12-29 06:15;62,8
2015-12-29 06:30;62,1
2015-12-29 06:45;60,35
2015-12-29 07:00;59,05
2015-12-29 07:15;82,3
2015-12-29 07:30;91,2
2015-12-29 07:45;91,1
2015-12-29 08:00;138,05
2015-12-29 08:15;100,5
2015-12-29 08:30;101,75
2015-12-29 08:45;98,05
2015-12-29 09:00;95,15
2015-12-29 09:15;106,2
2015-12-29 09:30;103,5
2015-12-29 09:45;114,9
2015-12-29 10:00;108,35
2015-12-29 10:15;112,05
2015-12-29 10:30;109,75
2015-12-29 10:45;124,7
2015-12-29 11:00;126,4
2015-12-29 11:15;104,2
2015-12-29 11:30;112
2015-12-29 11:45;105,35
2015-12-29 12:00;104,5
2015-12-29 12:15;100,05
2015-12-29 12:30;109
2015-12-29 12:45;100,65
2015-12-29 13:00;111,9
2015-12-29 13:15;102,35
2015-12-29 13:30;105,9
2015-12-29 13:45;96,2
2015-12-29 14:00;102,15
2015-12-29 14:15;93,6
2015-12-29 14:30;101,3
2015-12-29 14:45;91,65
2015-12-29 15:00;87,35
2015-12-29 15:15;84,3
2015-12-29 15:30;80,95
2015-12-29 15:45;77,3
2015-12-29 16:00;73,85
2015-12-29 16:15;72,85
2015-12-29 16:30;74,1
2015-12-29 16:45;70,3
2015-12-29 17:00;72,95
2015-12-29 17:15;73,7
2015-12-29 17:30;72,9
2015-12-29 17:45;77,05
2015-12-29 18:00;81,95
2015-12-29 18:15;80,7
2015-12-29 18:30;81
2015-12-29 18:45;80,2
2015-12-29 19:00;79,9
2015-12-29 19:15;67,9
2015-12-29 19:30;66,8
2015-12-29 19:45;67,9
2015-12-29 20:00;67,5
2015-12-29 20:15;66,3
2015-12-29 20:30;64,25
2015-12-29 20:45;66,25
2015-12-29 21:00;64,3
2015-12-29 21:15;62,5
2015-12-29 21:30;64,8
2015-12-29 21:45;63,85
2015-12-29 22:00;62,15
2015-12-29 22:15;61,2
2015-12-29 22:30;61,7
2015-12-29 22:45;61,8
2015-12-29 23:00;60,5
2015-12-29 23:15;60,3
2015-12-29 23:30;59,95
2015-12-29 23:45;60,05
2015-12-30 00:00;62,05
2015-12-30 00:15;60,55
2015-12-30 00:30;59,2
2015-12-30 00:45;59,25
2015-12-30 01:00;59,25
2015-12-30 01:15;59,75
2015-12-30 01:30;59,3
2015-12-30 01:45;59,95
2015-12-30 02:00;62,25
2015-12-30 02:15;59,8
2015-12-30 02:30;60,45
2015-12-30 02:45;59,8
2015-12-30 03:00;60,6
2015-12-30 03:15;60,4
2015-12-30 03:30;60,5
2015-12-30 03:45;60,85
2015-12-30 04:00;63,1
2015-12-30 04:15;61,7
2015-12-30 04:30;62,55
2015-12-30 04:45;64,4
2015-12-30 05:00;63,9
2015-12-30 05:15;60,9
2015-12-30 05:30;65,25
2015-12-30 05:45;58,45
2015-12-30 06:00;59,1
2015-12-30 06:15;61,8
2015-12-30 06:30;60,95
2015-12-30 06:45;57,35
2015-12-30 07:00;56,75
2015-12-30 07:15;80,45
2015-12-30 07:30;88,5
2015-12-30 07:45;88,2
2015-12-30 08:00;137
2015-12-30 08:15;88,9
2015-12-30 08:30;94,1
2015-12-30 08:45;85,65
2015-12-30 09:00;95,1
2015-12-30 09:15;100,45
2015-12-30 09:30;106,2
2015-12-30 09:45;106,7
2015-12-30 10:00;98
2015-12-30 10:15;112,7
2015-12-30 10:30;105,95
2015-12-30 10:45;118,75
2015-12-30 11:00;116,95
2015-12-30 11:15;114,95
2015-12-30 11:30;105,7
2015-12-30 11:45;111,1
2015-12-30 12:00;104,35
2015-12-30 12:15;115,75
2015-12-30 12:30;107,95
2015-12-30 12:45;108,75
2015-12-30 13:00;110,1
2015-12-30 13:15;113,55
2015-12-30 13:30;104,6
2015-12-30 13:45;102,75
2015-12-30 14:00;100,75
2015-12-30 14:15;99,15
2015-12-30 14:30;99,55
2015-12-30 14:45;98,85
2015-12-30 15:00;92,35
2015-12-30 15:15;81,05
2015-12-30 15:30;78,8
2015-12-30 15:45;75,55
2015-12-30 16:00;73,65
2015-12-30 16:15;73,4
2015-12-30 16:30;71,2
2015-12-30 16:45;60,7
2015-12-30 17:00;63,45
2015-12-30 17:15;63,8
2015-12-30 17:30;64,25
2015-12-30 17:45;65,95
2015-12-30 18:00;68,55
2015-12-30 18:15;68,25
2015-12-30 18:30;68,1
2015-12-30 18:45;70,65
2015-12-30 19:00;71,25
2015-12-30 19:15;71
2015-12-30 19:30;71,35
2015-12-30 19:45;69,2
2015-12-30 20:00;68,2
2015-12-30 20:15;67,85
2015-12-30 20:30;67,2
2015-12-30 20:45;67,25
2015-12-30 21:00;65,3
2015-12-30 21:15;65,2
2015-12-30 21:30;64,5
2015-12-30 21:45;65,5
2015-12-30 22:00;64,25
2015-12-30 22:15;60,95
2015-12-30 22:30;62,6
2015-12-30 22:45;63,95
2015-12-30 23:00;63,05
2015-12-30 23:15;62,3
2015-12-30 23:30;63,7
2015-12-30 23:45;62,3
2015-12-31 00:00;62,45
2015-12-31 00:15;62,15
2015-12-31 00:30;62,2
2015-12-31 00:45;61,6
2015-12-31 01:00;60,4
2015-12-31 01:15;61,4
2015-12-31 01:30;61,7
2015-12-31 01:45;61,85
2015-12-31 02:00;61,65
2015-12-31 02:15;62,1
2015-12-31 02:30;62,05
2015-12-31 02:45;62,15
2015-12-31 03:00;62,05
2015-12-31 03:15;61,9
2015-12-31 03:30;61,75
2015-12-31 03:45;61,8
2015-12-31 04:00;64,45
2015-12-31 04:15;62,65
2015-12-31 04:30;64,5
2015-12-31 04:45;66,65
2015-12-31 05:00;65,3
2015-12-31 05:15;62,2
2015-12-31 05:30;67,9
2015-12-31 05:45;60,55
2015-12-31 06:00;59,2
2015-12-31 06:15;62,6
2015-12-31 06:30;62,4
2015-12-31 06:45;57,7
2015-12-31 07:00;56,7
2015-12-31 07:15;57,55
2015-12-31 07:30;57,45
2015-12-31 07:45;58,45
2015-12-31 08:00;58,8
2015-12-31 08:15;58,6
2015-12-31 08:30;56,4
2015-12-31 08:45;55,6
2015-12-31 09:00;55,55
2015-12-31 09:15;57,6
2015-12-31 09:30;56,85
2015-12-31 09:45;57
2015-12-31 10:00;58,05
2015-12-31 10:15;59,65
2015-12-31 10:30;63,25
2015-12-31 10:45;67,8
2015-12-31 11:00;71,9
2015-12-31 11:15;59,2
2015-12-31 11:30;60,2
2015-12-31 11:45;62,25
2015-12-31 12:00;66,85
2015-12-31 12:15;64,6
2015-12-31 12:30;62,8
2015-12-31 12:45;63,05
2015-12-31 13:00;59,5
2015-12-31 13:15;59,05
2015-12-31 13:30;60,1
2015-12-31 13:45;61
2015-12-31 14:00;59,9
2015-12-31 14:15;59,6
2015-12-31 14:30;58
2015-12-31 14:45;59,95
2015-12-31 15:00;60,35
2015-12-31 15:15;58,65
2015-12-31 15:30;56,6
2015-12-31 15:45;56,05
2015-12-31 16:00;57,35
2015-12-31 16:15;58,5
2015-12-31 16:30;58,3
2015-12-31 16:45;57,1
2015-12-31 17:00;61,35
2015-12-31 17:15;64,15
2015-12-31 17:30;64,7
2015-12-31 17:45;67,25
2015-12-31 18:00;67,3
2015-12-31 18:15;67,4
2015-12-31 18:30;65,8
2015-12-31 18:45;66,85
2015-12-31 19:00;66,15
2015-12-31 19:15;68,05
2015-12-31 19:30;67,75
2015-12-31 19:45;68,25
2015-12-31 20:00;67,75
2015-12-31 20:15;66,7
2015-12-31 20:30;65,95
2015-12-31 20:45;65,65
2015-12-31 21:00;66,9
2015-12-31 21:15;65
2015-12-31 21:30;65,8
2015-12-31 21:45;65,1
2015-12-31 22:00;65,5
2015-12-31 22:15;65,05
2015-12-31 22:30;64,15
2015-12-31 22:45;64,1
2015-12-31 23:00;65,1
2015-12-31 23:15;63,8
2015-12-31 23:30;64,8
2015-12-31 23:45;64,7
2016-01-01 00:00;64,65
2016-01-01 00:15;65,15
2016-01-01 00:30;65,8
2016-01-01 00:45;65,2
2016-01-01 01:00;65,35
2016-01-01 01:15;65,65
2016-01-01 01:30;65,55
2016-01-01 01:45;65,8
2016-01-01 02:00;65,45
2016-01-01 02:15;63,35
2016-01-01 02:30;63,55
2016-01-01 02:45;62,25
2016-01-01 03:00;65,3
2016-01-01 03:15;63,9
2016-01-01 03:30;64,45
2016-01-01 03:45;63,75
2016-01-01 04:00;65,85
2016-01-01 04:15;67,05
2016-01-01 04:30;66,45
2016-01-01 04:45;67,5
2016-01-01 05:00;67,9
2016-01-01 05:15;62,8
2016-01-01 05:30;67,3
2016-01-01 05:45;62,75
2016-01-01 06:00;61,7
2016-01-01 06:15;61,2
2016-01-01 06:30;63,45
2016-01-01 06:45;60,05
2016-01-01 07:00;58,95
2016-01-01 07:15;55,95
2016-01-01 07:30;57,5
2016-01-01 07:45;57,75
2016-01-01 08:00;57,75
2016-01-01 08:15;56,1
2016-01-01 08:30;55,8
2016-01-01 08:45;56,1
2016-01-01 09:00;55,4
2016-01-01 09:15;54,8
2016-01-01 09:30;55,4
2016-01-01 09:45;52,6
2016-01-01 10:00;55,65
2016-01-01 10:15;58,45
2016-01-01 10:30;59,3
2016-01-01 10:45;62,6
2016-01-01 11:00;66,5
2016-01-01 11:15;54,8
2016-01-01 11:30;55,9
2016-01-01 11:45;53,75
2016-01-01 12:00;55,35
2016-01-01 12:15;54,2
2016-01-01 12:30;54,75
2016-01-01 12:45;56,25
2016-01-01 13:00;54,95
2016-01-01 13:15;54,85
2016-01-01 13:30;55,45
2016-01-01 13:45;55,3
2016-01-01 14:00;56,4
2016-01-01 14:15;54,45
2016-01-01 14:30;55,8
2016-01-01 14:45;53,45
2016-01-01 15:00;54,1
2016-01-01 15:15;55,25
2016-01-01 15:30;55,25
2016-01-01 15:45;53,3
2016-01-01 16:00;53,5
2016-01-01 16:15;55,05
2016-01-01 16:30;55,4
2016-01-01 16:45;56,2
2016-01-01 17:00;57,35
2016-01-01 17:15;57,9
2016-01-01 17:30;57,75
2016-01-01 17:45;59,55
2016-01-01 18:00;63,85
2016-01-01 18:15;63,5
2016-01-01 18:30;63,1
2016-01-01 18:45;63,9
2016-01-01 19:00;61,4
2016-01-01 19:15;61,55
2016-01-01 19:30;63,35
2016-01-01 19:45;64,65
2016-01-01 20:00;63,25
2016-01-01 20:15;64,35
2016-01-01 20:30;63,7
2016-01-01 20:45;63,65
2016-01-01 21:00;63,2
2016-01-01 21:15;62,25
2016-01-01 21:30;63,55
2016-01-01 21:45;61,35
2016-01-01 22:00;61,7
2016-01-01 22:15;61,5
2016-01-01 22:30;60,4
2016-01-01 22:45;60,15
2016-01-01 23:00;60,6
2016-01-01 23:15;62,9
2016-01-01 23:30;58,75
2016-01-01 23:45;60,1
2016-01-02 00:00;60,6
2016-01-02 00:15;61,9
2016-01-02 00:30;60,5
2016-01-02 00:45;61,1
2016-01-02 01:00;59,75
2016-01-02 01:15;61,1
2016-01-02 01:30;59,95
2016-01-02 01:45;60,5
2016-01-02 02:00;60,2
2016-01-02 02:15;62,05
2016-01-02 02:30;61,2
2016-01-02 02:45;61
2016-01-02 03:00;60,55
2016-01-02 03:15;59,55
2016-01-02 03:30;60,95
2016-01-02 03:45;59,55
2016-01-02 04:00;62,25
2016-01-02 04:15;63,95
2016-01-02 04:30;62,6
2016-01-02 04:45;65,75
2016-01-02 05:00;64,85
2016-01-02 05:15;60,1
2016-01-02 05:30;63,95
2016-01-02 05:45;58,3
2016-01-02 06:00;59,8
2016-01-02 06:15;61,6
2016-01-02 06:30;61
2016-01-02 06:45;57,15
2016-01-02 07:00;56,3
2016-01-02 07:15;57,85
2016-01-02 07:30;57,4
2016-01-02 07:45;54,85
2016-01-02 08:00;54,05
2016-01-02 08:15;52,65
2016-01-02 08:30;55,05
2016-01-02 08:45;55,8
2016-01-02 09:00;55,9
2016-01-02 09:15;53,7
2016-01-02 09:30;52,9
2016-01-02 09:45;54,5
2016-01-02 10:00;55,8
2016-01-02 10:15;57,15
2016-01-02 10:30;58,5
2016-01-02 10:45;65,15
2016-01-02 11:00;69,4
2016-01-02 11:15;57,05
2016-01-02 11:30;59,45
2016-01-02 11:45;60,1
2016-01-02 12:00;57,35
2016-01-02 12:15;59,8
2016-01-02 12:30;59,95
2016-01-02 12:45;60,75
2016-01-02 13:00;58,25
2016-01-02 13:15;58,8
2016-01-02 13:30;59,65
2016-01-02 13:45;60,35
2016-01-02 14:00;62,85
2016-01-02 14:15;61,7
2016-01-02 14:30;60,95
2016-01-02 14:45;60
2016-01-02 15:00;60,5
2016-01-02 15:15;58,25
2016-01-02 15:30;58,95
2016-01-02 15:45;60,95
2016-01-02 16:00;59,75
2016-01-02 16:15;59,45
2016-01-02 16:30;61,05
2016-01-02 16:45;61,6
2016-01-02 17:00;61,15
2016-01-02 17:15;61,85
2016-01-02 17:30;61,25
2016-01-02 17:45;66,65
2016-01-02 18:00;66,55
2016-01-02 18:15;65,05
2016-01-02 18:30;65,7
2016-01-02 18:45;67
2016-01-02 19:00;67,45
2016-01-02 19:15;65,75
2016-01-02 19:30;66,95
2016-01-02 19:45;65,5
2016-01-02 20:00;64,95
2016-01-02 20:15;64,3
2016-01-02 20:30;64,2
2016-01-02 20:45;61,95
2016-01-02 21:00;61,85
2016-01-02 21:15;60,6
2016-01-02 21:30;60,4
2016-01-02 21:45;60,1
2016-01-02 22:00;62,75
2016-01-02 22:15;61,75
2016-01-02 22:30;60,25
2016-01-02 22:45;58,95
2016-01-02 23:00;62,15
2016-01-02 23:15;62,25
2016-01-02 23:30;60,9
2016-01-02 23:45;60,7
2016-01-03 00:00;60,25
2016-01-03 00:15;60,75
2016-01-03 00:30;60,9
2016-01-03 00:45;61,9
2016-01-03 01:00;60,85
2016-01-03 01:15;60,95
2016-01-03 01:30;62,55
2016-01-03 01:45;60,5
2016-01-03 02:00;59,7
2016-01-03 02:15;62
2016-01-03 02:30;60,3
2016-01-03 02:45;60,85
2016-01-03 03:00;60,95
2016-01-03 03:15;60,35
2016-01-03 03:30;61,25
2016-01-03 03:45;60,65
2016-01-03 04:00;64,8
2016-01-03 04:15;62,2
2016-01-03 04:30;63,45
2016-01-03 04:45;65,3
2016-01-03 05:00;64,15
2016-01-03 05:15;61,3
2016-01-03 05:30;65,65
2016-01-03 05:45;59,4
2016-01-03 06:00;58,75
2016-01-03 06:15;59,65
2016-01-03 06:30;62,15
2016-01-03 06:45;57,85
2016-01-03 07:00;58,35
2016-01-03 07:15;57,05
2016-01-03 07:30;55,75
2016-01-03 07:45;54,65
2016-01-03 08:00;54,35
2016-01-03 08:15;55,6
2016-01-03 08:30;54,15
2016-01-03 08:45;53,6
2016-01-03 09:00;54,2
2016-01-03 09:15;57,05
2016-01-03 09:30;56,6
2016-01-03 09:45;57,25
2016-01-03 10:00;59,6
2016-01-03 10:15;57,65
2016-01-03 10:30;60,5
2016-01-03 10:45;64,9
2016-01-03 11:00;68
2016-01-03 11:15;54,3
2016-01-03 11:30;54,2
2016-01-03 11:45;56,6
2016-01-03 12:00;56,85
2016-01-03 12:15;55,75
2016-01-03 12:30;57,85
2016-01-03 12:45;56,8
2016-01-03 13:00;57,1
2016-01-03 13:15;56,2
2016-01-03 13:30;57,8
2016-01-03 13:45;56,75
2016-01-03 14:00;56,3
2016-01-03 14:15;55,85
2016-01-03 14:30;55,85
2016-01-03 14:45;54,35
2016-01-03 15:00;54,7
2016-01-03 15:15;56,25
2016-01-03 15:30;54
2016-01-03 15:45;54,2
2016-01-03 16:00;55,7
2016-01-03 16:15;55,8
2016-01-03 16:30;55,1
2016-01-03 16:45;56
2016-01-03 17:00;57,15
2016-01-03 17:15;56,35
2016-01-03 17:30;56,9
2016-01-03 17:45;61,2
2016-01-03 18:00;62,6
2016-01-03 18:15;60,05
2016-01-03 18:30;63,45
2016-01-03 18:45;62,25
2016-01-03 19:00;62,1
2016-01-03 19:15;62,55
2016-01-03 19:30;62,45
2016-01-03 19:45;61,05
2016-01-03 20:00;62,8
2016-01-03 20:15;63,35
2016-01-03 20:30;62,25
2016-01-03 20:45;63,05
2016-01-03 21:00;60,7
2016-01-03 21:15;60,35
2016-01-03 21:30;61,7
2016-01-03 21:45;60,1
2016-01-03 22:00;59,35
2016-01-03 22:15;60,7
2016-01-03 22:30;58,8
2016-01-03 22:45;58,65
2016-01-03 23:00;58,4
2016-01-03 23:15;56,9
2016-01-03 23:30;58,4
2016-01-03 23:45;59

